Regional Weather Roundup
Issued by NWS Binghamton, NY

Home | Current Version | Previous Version | Text Only | Print | Product List | Glossary On
Versions: 1 2 3 4 5 6 7 8 9 10 11 12 13 14 15 16 17 18 19 20 21 22 23 24 25 26 27 28
000
ASUS41 KBGM 250810
RWRBGM

REGIONAL WEATHER ROUNDUP
NATIONAL WEATHER SERVICE BINGHAMTON NY
400 AM EDT WED MAY 25 2016

Note: "fair" indicates few or no clouds below 12,000 feet with no
significant weather and/or obstructions to visibility.

* = Station(s) that does not report precipitation, such as rain,
snow, etc, also no thunder or fog.

NYZ009-015>018-022>025-036-037-044>046-055>057-062-250900
...Central New York...

CITY           SKY/WX    TMP DP  RH WIND       PRES   REMARKS
Binghamton     CLEAR     53  41  63 W8        30.05R
Cortland       FAIR      45  41  87 CALM      30.05R
Dansville      CLEAR     52  43  71 S8        30.05S
Elmira         CLEAR     50  42  74 SW6       30.05R
Ithaca         CLEAR     47  42  83 E6        30.05R
Hamilton       CLEAR     46  39  76 CALM      30.04R
Hornell        CLEAR     46  43  87 SE6       30.11S
Monticello     CLEAR     46  46 100 CALM      30.06R
Norwich        CLEAR     43  39  87 CALM      30.06R
Oneonta        CLEAR     52  34  50 CALM      30.04S
Penn Yan       CLEAR     64  37  36 S9        30.03R
Rome           CLEAR     46  40  79 CALM      30.02R
Sidney         CLEAR     46  46 100 CALM      30.06R
Syracuse       CLEAR     50  44  80 CALM      29.99R
$$

PAZ038>040-043-044-047-048-072-250900
...Northeast Pennsylvania...

CITY           SKY/WX    TMP DP  RH WIND       PRES   REMARKS
Hazleton       CLEAR     46  41  81 CALM      30.11S
Scranton       CLEAR     52  42  69 E3        30.05S
$$
&&
KEY
WCI = Wind Chill Index
VSB = Visibility
HX  = Heat Index
$$




USA.gov is the U.S. government's official web portal to all federal, state and local government web resources and services.